Time,TemperatureF,DewpointF,PressureIn,WindDirection,WindDirectionDegrees,WindSpeedMPH,WindSpeedGustMPH,Humidity,HourlyPrecipIn,Conditions,Clouds,dailyrainin,SoftwareType,DateUTC
2013-10-25 00:01:00,33.5,29.8,30.33,WNW,299,0.0,0.0,86,0.00,,,0.00,Wunderground v.1.15,2013-10-25 04:01:00,
2013-10-25 00:05:00,33.3,29.6,30.33,WNW,299,0.0,0.0,86,0.00,,,0.00,Wunderground v.1.15,2013-10-25 04:05:00,
2013-10-25 00:11:00,33.2,29.5,30.33,WNW,299,0.0,0.0,86,0.00,,,0.00,Wunderground v.1.15,2013-10-25 04:11:00,
2013-10-25 00:15:00,33.1,31.0,30.33,WNW,299,0.0,0.0,92,0.00,,,0.00,Wunderground v.1.15,2013-10-25 04:15:00,
2013-10-25 00:21:00,32.9,29.5,30.34,WNW,299,0.0,0.0,87,0.00,,,0.00,Wunderground v.1.15,2013-10-25 04:21:00,
2013-10-25 00:23:00,32.9,29.5,30.34,WNW,299,0.0,0.0,87,0.00,,,0.00,Wunderground v.1.15,2013-10-25 04:23:00,
2013-10-25 00:29:00,32.8,29.1,30.34,WNW,299,0.0,0.0,86,0.00,,,0.00,Wunderground v.1.15,2013-10-25 04:29:00,
2013-10-25 00:35:00,32.5,29.1,30.34,WNW,299,0.0,0.0,87,0.00,,,0.00,Wunderground v.1.15,2013-10-25 04:35:00,
2013-10-25 00:41:00,32.3,29.1,30.35,WNW,299,0.0,0.0,88,0.00,,,0.00,Wunderground v.1.15,2013-10-25 04:41:00,
2013-10-25 00:47:00,32.3,29.1,30.35,WNW,299,0.0,0.0,88,0.00,,,0.00,Wunderground v.1.15,2013-10-25 04:47:00,
2013-10-25 00:49:00,32.3,29.1,30.35,WNW,299,0.0,0.0,88,0.00,,,0.00,Wunderground v.1.15,2013-10-25 04:49:00,
2013-10-25 00:55:00,32.4,29.2,30.35,WNW,299,0.0,0.0,88,0.00,,,0.00,Wunderground v.1.15,2013-10-25 04:55:00,
2013-10-25 01:01:00,32.3,29.1,30.35,WNW,299,0.0,0.0,88,0.00,,,0.00,Wunderground v.1.15,2013-10-25 05:01:00,
2013-10-25 01:07:00,32.2,29.0,30.36,WNW,299,0.0,0.0,88,0.00,,,0.00,Wunderground v.1.15,2013-10-25 05:07:00,
2013-10-25 01:13:00,32.1,28.9,30.35,WNW,299,0.0,0.0,88,0.00,,,0.00,Wunderground v.1.15,2013-10-25 05:13:00,
2013-10-25 01:19:00,31.9,28.8,30.36,WNW,299,0.0,0.0,88,0.00,,,0.00,Wunderground v.1.15,2013-10-25 05:19:00,
2013-10-25 01:25:00,31.8,28.7,30.36,WNW,299,0.0,0.0,88,0.00,,,0.00,Wunderground v.1.15,2013-10-25 05:25:00,
2013-10-25 01:31:00,31.6,28.5,30.36,WNW,299,0.0,0.0,88,0.00,,,0.00,Wunderground v.1.15,2013-10-25 05:31:00,
2013-10-25 01:37:00,31.5,28.6,30.36,WNW,299,0.0,0.0,89,0.00,,,0.00,Wunderground v.1.15,2013-10-25 05:37:00,
2013-10-25 01:43:00,31.4,28.5,30.36,WNW,299,0.0,0.0,89,0.00,,,0.00,Wunderground v.1.15,2013-10-25 05:43:00,
2013-10-25 01:49:00,31.2,28.3,30.36,WNW,299,0.0,0.0,89,0.00,,,0.00,Wunderground v.1.15,2013-10-25 05:49:00,
2013-10-25 01:55:00,31.1,28.2,30.36,WNW,299,0.0,0.0,89,0.00,,,0.00,Wunderground v.1.15,2013-10-25 05:55:00,
2013-10-25 02:01:00,31.0,28.1,30.36,WNW,299,0.0,0.0,89,0.00,,,0.00,Wunderground v.1.15,2013-10-25 06:01:00,
2013-10-25 02:07:00,30.8,28.2,30.36,WNW,299,0.0,0.0,90,0.00,,,0.00,Wunderground v.1.15,2013-10-25 06:07:00,
2013-10-25 02:13:00,30.9,28.3,30.36,WNW,299,0.0,0.0,90,0.00,,,0.00,Wunderground v.1.15,2013-10-25 06:13:00,
2013-10-25 02:19:00,30.8,28.2,30.36,WNW,299,0.0,0.0,90,0.00,,,0.00,Wunderground v.1.15,2013-10-25 06:19:00,
2013-10-25 02:25:00,30.8,28.2,30.36,WNW,299,0.0,0.0,90,0.00,,,0.00,Wunderground v.1.15,2013-10-25 06:25:00,
2013-10-25 02:31:00,30.8,28.2,30.36,WNW,299,0.0,0.0,90,0.00,,,0.00,Wunderground v.1.15,2013-10-25 06:31:00,
2013-10-25 02:37:00,30.9,28.6,30.37,WNW,299,0.0,0.0,91,0.00,,,0.00,Wunderground v.1.15,2013-10-25 06:37:00,
2013-10-25 02:43:00,31.0,28.4,30.37,WNW,299,0.0,0.0,90,0.00,,,0.00,Wunderground v.1.15,2013-10-25 06:43:00,
2013-10-25 02:49:00,30.9,28.3,30.37,WNW,299,0.0,0.0,90,0.00,,,0.00,Wunderground v.1.15,2013-10-25 06:49:00,
2013-10-25 02:55:00,30.9,28.3,30.37,WNW,299,0.0,0.0,90,0.00,,,0.00,Wunderground v.1.15,2013-10-25 06:55:00,
2013-10-25 03:03:00,30.8,28.2,30.37,WNW,299,0.0,0.0,90,0.00,,,0.00,Wunderground v.1.15,2013-10-25 07:03:00,
2013-10-25 03:09:00,30.7,28.1,30.37,WNW,299,0.0,0.0,90,0.00,,,0.00,Wunderground v.1.15,2013-10-25 07:09:00,
2013-10-25 03:17:00,30.6,28.0,30.37,WNW,299,0.0,0.0,90,0.00,,,0.00,Wunderground v.1.15,2013-10-25 07:17:00,
2013-10-25 03:23:00,30.5,27.9,30.38,WNW,299,0.0,0.0,90,0.00,,,0.00,Wunderground v.1.15,2013-10-25 07:23:00,
2013-10-25 03:29:00,30.3,28.0,30.38,WNW,299,0.0,0.0,91,0.00,,,0.00,Wunderground v.1.15,2013-10-25 07:29:00,
2013-10-25 03:35:00,30.3,28.0,30.38,WNW,299,0.0,0.0,91,0.00,,,0.00,Wunderground v.1.15,2013-10-25 07:35:00,
2013-10-25 03:41:00,30.2,27.9,30.39,WNW,299,0.0,0.0,91,0.00,,,0.00,Wunderground v.1.15,2013-10-25 07:41:00,
2013-10-25 03:47:00,30.1,27.8,30.39,WNW,299,0.0,0.0,91,0.00,,,0.00,Wunderground v.1.15,2013-10-25 07:47:00,
2013-10-25 03:53:00,30.0,27.7,30.39,WNW,299,0.0,0.0,91,0.00,,,0.00,Wunderground v.1.15,2013-10-25 07:53:00,
2013-10-25 03:59:00,29.9,27.9,30.39,WNW,299,0.0,0.0,92,0.00,,,0.00,Wunderground v.1.15,2013-10-25 07:59:00,
2013-10-25 04:05:00,29.8,27.8,30.39,WNW,299,0.0,0.0,92,0.00,,,0.00,Wunderground v.1.15,2013-10-25 08:05:00,
2013-10-25 04:11:00,29.7,27.7,30.39,WNW,299,0.0,0.0,92,0.00,,,0.00,Wunderground v.1.15,2013-10-25 08:11:00,
2013-10-25 04:17:00,29.7,27.7,30.39,WNW,299,0.0,0.0,92,0.00,,,0.00,Wunderground v.1.15,2013-10-25 08:17:00,
2013-10-25 04:23:00,29.6,27.6,30.39,WNW,299,0.0,0.0,92,0.00,,,0.00,Wunderground v.1.15,2013-10-25 08:23:00,
2013-10-25 04:29:00,29.6,27.6,30.40,WNW,299,0.0,0.0,92,0.00,,,0.00,Wunderground v.1.15,2013-10-25 08:29:00,
2013-10-25 04:35:00,29.5,27.5,30.40,WNW,299,0.0,0.0,92,0.00,,,0.00,Wunderground v.1.15,2013-10-25 08:35:00,
2013-10-25 04:41:00,29.3,27.3,30.40,WNW,299,0.0,0.0,92,0.00,,,0.00,Wunderground v.1.15,2013-10-25 08:41:00,
2013-10-25 04:47:00,29.3,27.3,30.40,WNW,299,0.0,0.0,92,0.00,,,0.00,Wunderground v.1.15,2013-10-25 08:47:00,
2013-10-25 04:53:00,29.3,27.3,30.40,WNW,299,0.0,0.0,92,0.00,,,0.00,Wunderground v.1.15,2013-10-25 08:53:00,
2013-10-25 04:59:00,29.3,27.3,30.41,WNW,299,0.0,0.0,92,0.00,,,0.00,Wunderground v.1.15,2013-10-25 08:59:00,
2013-10-25 05:05:00,29.2,27.2,30.40,WNW,299,0.0,0.0,92,0.00,,,0.00,Wunderground v.1.15,2013-10-25 09:05:00,
2013-10-25 05:11:00,29.2,27.2,30.40,WNW,299,0.0,0.0,92,0.00,,,0.00,Wunderground v.1.15,2013-10-25 09:11:00,
2013-10-25 05:17:00,29.1,27.1,30.40,WNW,299,0.0,0.0,92,0.00,,,0.00,Wunderground v.1.15,2013-10-25 09:17:00,
2013-10-25 05:23:00,29.1,27.1,30.41,WNW,299,0.0,0.0,92,0.00,,,0.00,Wunderground v.1.15,2013-10-25 09:23:00,
2013-10-25 05:29:00,29.0,27.0,30.41,WNW,299,0.0,0.0,92,0.00,,,0.00,Wunderground v.1.15,2013-10-25 09:29:00,
2013-10-25 05:35:00,28.9,27.1,30.41,WNW,299,0.0,0.0,93,0.00,,,0.00,Wunderground v.1.15,2013-10-25 09:35:00,
2013-10-25 05:41:00,28.9,27.1,30.41,WNW,299,0.0,0.0,93,0.00,,,0.00,Wunderground v.1.15,2013-10-25 09:41:00,
2013-10-25 05:47:00,28.9,27.1,30.42,WNW,299,0.0,0.0,93,0.00,,,0.00,Wunderground v.1.15,2013-10-25 09:47:00,
2013-10-25 05:53:00,28.9,27.1,30.42,WNW,299,0.0,0.0,93,0.00,,,0.00,Wunderground v.1.15,2013-10-25 09:53:00,
2013-10-25 05:59:00,28.8,27.0,30.42,WNW,299,0.0,0.0,93,0.00,,,0.00,Wunderground v.1.15,2013-10-25 09:59:00,
2013-10-25 06:05:00,28.7,26.7,30.42,WNW,299,0.0,0.0,92,0.00,,,0.00,Wunderground v.1.15,2013-10-25 10:05:00,
2013-10-25 06:11:00,28.7,26.9,30.42,WNW,299,0.0,0.0,93,0.00,,,0.00,Wunderground v.1.15,2013-10-25 10:11:00,
2013-10-25 06:17:00,28.7,26.9,30.43,WNW,299,0.0,0.0,93,0.00,,,0.00,Wunderground v.1.15,2013-10-25 10:17:00,
2013-10-25 06:23:00,28.7,26.7,30.43,WNW,299,0.0,0.0,92,0.00,,,0.00,Wunderground v.1.15,2013-10-25 10:23:00,
2013-10-25 06:29:00,28.6,26.6,30.43,WNW,299,0.0,0.0,92,0.00,,,0.00,Wunderground v.1.15,2013-10-25 10:29:00,
2013-10-25 06:35:00,28.6,26.6,30.43,WNW,299,0.0,0.0,92,0.00,,,0.00,Wunderground v.1.15,2013-10-25 10:35:00,
2013-10-25 06:41:00,28.6,26.8,30.43,WNW,299,0.0,0.0,93,0.00,,,0.00,Wunderground v.1.15,2013-10-25 10:41:00,
2013-10-25 06:47:00,28.6,26.8,30.44,WNW,299,0.0,0.0,93,0.00,,,0.00,Wunderground v.1.15,2013-10-25 10:47:00,
2013-10-25 06:53:00,28.6,26.6,30.44,WNW,299,0.0,0.0,92,0.00,,,0.00,Wunderground v.1.15,2013-10-25 10:53:00,
2013-10-25 06:59:00,28.5,26.5,30.44,WNW,299,0.0,0.0,92,0.00,,,0.00,Wunderground v.1.15,2013-10-25 10:59:00,
2013-10-25 07:05:00,28.3,26.3,30.44,WNW,299,0.0,0.0,92,0.00,,,0.00,Wunderground v.1.15,2013-10-25 11:05:00,
2013-10-25 07:11:00,28.1,26.3,30.44,WNW,299,0.0,0.0,93,0.00,,,0.00,Wunderground v.1.15,2013-10-25 11:11:00,
2013-10-25 07:17:00,28.1,26.3,30.44,WNW,299,0.0,0.0,93,0.00,,,0.00,Wunderground v.1.15,2013-10-25 11:17:00,
2013-10-25 07:23:00,28.1,26.3,30.45,WNW,299,0.0,0.0,93,0.00,,,0.00,Wunderground v.1.15,2013-10-25 11:23:00,
2013-10-25 07:29:00,28.0,26.2,30.45,WNW,299,0.0,0.0,93,0.00,,,0.00,Wunderground v.1.15,2013-10-25 11:29:00,
2013-10-25 07:35:00,27.9,26.1,30.45,WNW,299,0.0,0.0,93,0.00,,,0.00,Wunderground v.1.15,2013-10-25 11:35:00,
2013-10-25 07:41:00,27.8,26.0,30.45,WNW,299,0.0,0.0,93,0.00,,,0.00,Wunderground v.1.15,2013-10-25 11:41:00,
2013-10-25 07:47:00,27.8,26.0,30.46,WNW,299,0.0,0.0,93,0.00,,,0.00,Wunderground v.1.15,2013-10-25 11:47:00,
2013-10-25 07:53:00,27.8,26.0,30.46,WNW,299,0.0,0.0,93,0.00,,,0.00,Wunderground v.1.15,2013-10-25 11:53:00,
2013-10-25 07:59:00,27.6,25.6,30.46,WNW,299,0.0,0.0,92,0.00,,,0.00,Wunderground v.1.15,2013-10-25 11:59:00,
2013-10-25 08:05:00,27.2,25.2,30.46,WNW,299,0.0,0.0,92,0.00,,,0.00,Wunderground v.1.15,2013-10-25 12:05:00,
2013-10-25 08:11:00,27.0,25.0,30.47,WNW,299,0.0,0.0,92,0.00,,,0.00,Wunderground v.1.15,2013-10-25 12:11:00,
2013-10-25 08:17:00,27.0,25.2,30.47,WNW,299,0.0,0.0,93,0.00,,,0.00,Wunderground v.1.15,2013-10-25 12:17:00,
2013-10-25 08:23:00,26.9,25.1,30.47,WNW,299,0.0,0.0,93,0.00,,,0.00,Wunderground v.1.15,2013-10-25 12:23:00,
2013-10-25 08:29:00,27.0,25.2,30.46,WNW,299,0.0,0.0,93,0.00,,,0.00,Wunderground v.1.15,2013-10-25 12:29:00,
2013-10-25 08:35:00,27.1,25.3,30.47,WNW,299,0.0,0.0,93,0.00,,,0.00,Wunderground v.1.15,2013-10-25 12:35:00,
2013-10-25 08:41:00,27.3,25.5,30.47,WNW,299,0.0,0.0,93,0.00,,,0.00,Wunderground v.1.15,2013-10-25 12:41:00,
2013-10-25 08:47:00,27.7,26.2,30.47,WNW,299,0.0,0.0,94,0.00,,,0.00,Wunderground v.1.15,2013-10-25 12:47:00,
2013-10-25 08:53:00,28.1,26.6,30.47,WNW,299,0.0,0.0,94,0.00,,,0.00,Wunderground v.1.15,2013-10-25 12:53:00,
2013-10-25 08:59:00,28.5,27.0,30.47,WNW,299,0.0,0.0,94,0.00,,,0.00,Wunderground v.1.15,2013-10-25 12:59:00,
2013-10-25 09:05:00,29.0,27.5,30.48,WNW,299,0.0,0.0,94,0.00,,,0.00,Wunderground v.1.15,2013-10-25 13:05:00,
2013-10-25 09:11:00,29.6,28.1,30.48,WNW,299,0.0,0.0,94,0.00,,,0.00,Wunderground v.1.15,2013-10-25 13:11:00,
2013-10-25 09:17:00,30.2,28.4,30.48,WNW,299,0.0,0.0,93,0.00,,,0.00,Wunderground v.1.15,2013-10-25 13:17:00,
2013-10-25 09:23:00,30.8,28.8,30.49,WNW,299,0.0,0.0,92,0.00,,,0.00,Wunderground v.1.15,2013-10-25 13:23:00,
2013-10-25 09:29:00,31.3,29.2,30.48,WNW,299,0.0,0.0,92,0.00,,,0.00,Wunderground v.1.15,2013-10-25 13:29:00,
2013-10-25 09:35:00,31.7,29.1,30.48,WNW,299,0.0,0.0,90,0.00,,,0.00,Wunderground v.1.15,2013-10-25 13:35:00,
2013-10-25 09:41:00,32.3,29.4,30.48,WNW,299,0.0,1.0,89,0.00,,,0.00,Wunderground v.1.15,2013-10-25 13:41:00,
2013-10-25 09:47:00,32.8,29.4,30.49,WNW,299,0.0,3.0,87,0.00,,,0.00,Wunderground v.1.15,2013-10-25 13:47:00,
2013-10-25 09:53:00,33.4,29.7,30.49,WNW,299,0.0,1.0,86,0.00,,,0.00,Wunderground v.1.15,2013-10-25 13:53:00,
2013-10-25 09:59:00,33.9,30.2,30.49,WNW,299,1.0,2.0,86,0.00,,,0.00,Wunderground v.1.15,2013-10-25 13:59:00,
2013-10-25 10:05:00,34.3,30.3,30.49,WNW,299,1.0,1.0,85,0.00,,,0.00,Wunderground v.1.15,2013-10-25 14:05:00,
2013-10-25 10:11:00,34.7,30.4,30.49,WNW,299,1.0,3.0,84,0.00,,,0.00,Wunderground v.1.15,2013-10-25 14:11:00,
2013-10-25 10:17:00,35.1,30.8,30.49,WNW,299,1.0,3.0,84,0.00,,,0.00,Wunderground v.1.15,2013-10-25 14:17:00,
2013-10-25 10:23:00,35.3,30.7,30.49,WNW,303,1.0,1.0,83,0.00,,,0.00,Wunderground v.1.15,2013-10-25 14:23:00,
2013-10-25 10:29:00,35.9,31.5,30.49,WNW,303,1.0,2.0,84,0.00,,,0.00,Wunderground v.1.15,2013-10-25 14:29:00,
2013-10-25 10:35:00,36.2,30.9,30.50,WNW,303,1.0,3.0,81,0.00,,,0.00,Wunderground v.1.15,2013-10-25 14:35:00,
2013-10-25 10:41:00,36.6,31.9,30.49,NNW,341,1.0,1.0,83,0.00,,,0.00,Wunderground v.1.15,2013-10-25 14:41:00,
2013-10-25 10:47:00,37.0,31.7,30.50,NNW,334,1.0,2.0,81,0.00,,,0.00,Wunderground v.1.15,2013-10-25 14:47:00,
2013-10-25 10:53:00,37.4,32.1,30.50,NNW,333,1.0,1.0,81,0.00,,,0.00,Wunderground v.1.15,2013-10-25 14:53:00,
2013-10-25 10:59:00,37.7,31.5,30.50,WNW,282,1.0,2.0,78,0.00,,,0.00,Wunderground v.1.15,2013-10-25 14:59:00,
2013-10-25 11:05:00,38.2,32.6,30.50,NW,311,1.0,1.0,80,0.00,,,0.00,Wunderground v.1.15,2013-10-25 15:05:00,
2013-10-25 11:11:00,38.7,32.4,30.50,WNW,297,2.0,2.0,78,0.00,,,0.00,Wunderground v.1.15,2013-10-25 15:11:00,
2013-10-25 11:17:00,39.1,33.1,30.50,WNW,294,2.0,2.0,79,0.00,,,0.00,Wunderground v.1.15,2013-10-25 15:17:00,
2013-10-25 11:23:00,39.5,32.9,30.50,WNW,293,2.0,2.0,77,0.00,,,0.00,Wunderground v.1.15,2013-10-25 15:23:00,
2013-10-25 11:29:00,40.0,32.7,30.50,WNW,294,2.0,3.0,75,0.00,,,0.00,Wunderground v.1.15,2013-10-25 15:29:00,
2013-10-25 11:35:00,40.5,33.5,30.50,WNW,303,2.0,4.0,76,0.00,,,0.00,Wunderground v.1.15,2013-10-25 15:35:00,
2013-10-25 11:41:00,41.1,33.4,30.50,WNW,301,1.0,2.0,74,0.00,,,0.00,Wunderground v.1.15,2013-10-25 15:41:00,
2013-10-25 11:47:00,41.3,33.3,30.50,WNW,300,2.0,3.0,73,0.00,,,0.00,Wunderground v.1.15,2013-10-25 15:47:00,
2013-10-25 11:53:00,41.5,33.5,30.50,WNW,288,2.0,5.0,73,0.00,,,0.00,Wunderground v.1.15,2013-10-25 15:53:00,
2013-10-25 11:59:00,42.0,34.3,30.50,WNW,283,1.0,5.0,74,0.00,,,0.00,Wunderground v.1.15,2013-10-25 15:59:00,
2013-10-25 12:05:00,42.2,33.5,30.50,West,278,1.0,4.0,71,0.00,,,0.00,Wunderground v.1.15,2013-10-25 16:05:00,
2013-10-25 12:11:00,42.7,35.3,30.50,West,275,1.0,1.0,75,0.00,,,0.00,Wunderground v.1.15,2013-10-25 16:11:00,
2013-10-25 12:17:00,43.4,34.6,30.50,West,273,1.0,2.0,71,0.00,,,0.00,Wunderground v.1.15,2013-10-25 16:17:00,
2013-10-25 12:23:00,43.9,33.6,30.50,West,280,1.0,1.0,67,0.00,,,0.00,Wunderground v.1.15,2013-10-25 16:23:00,
2013-10-25 12:29:00,44.2,33.6,30.50,NW,315,1.0,4.0,66,0.00,,,0.00,Wunderground v.1.15,2013-10-25 16:29:00,
2013-10-25 12:35:00,44.7,32.5,30.49,NW,322,1.0,5.0,62,0.00,,,0.00,Wunderground v.1.15,2013-10-25 16:35:00,
2013-10-25 12:41:00,44.9,33.5,30.49,NW,321,1.0,2.0,64,0.00,,,0.00,Wunderground v.1.15,2013-10-25 16:41:00,
2013-10-25 12:47:00,45.4,33.1,30.49,NNW,330,2.0,6.0,62,0.00,,,0.00,Wunderground v.1.15,2013-10-25 16:47:00,
2013-10-25 12:53:00,45.7,33.4,30.49,NNW,329,2.0,2.0,62,0.00,,,0.00,Wunderground v.1.15,2013-10-25 16:53:00,
2013-10-25 12:59:00,45.7,32.2,30.49,NNW,343,1.0,2.0,59,0.00,,,0.00,Wunderground v.1.15,2013-10-25 16:59:00,
2013-10-25 13:05:00,46.1,33.8,30.49,West,278,2.0,3.0,62,0.00,,,0.00,Wunderground v.1.15,2013-10-25 17:05:00,
2013-10-25 13:11:00,46.1,32.1,30.48,WNW,284,2.0,2.0,58,0.00,,,0.00,Wunderground v.1.15,2013-10-25 17:11:00,
2013-10-25 13:17:00,46.3,31.0,30.48,WNW,292,2.0,4.0,55,0.00,,,0.00,Wunderground v.1.15,2013-10-25 17:17:00,
2013-10-25 13:23:00,46.5,30.7,30.48,West,275,3.0,3.0,54,0.00,,,0.00,Wunderground v.1.15,2013-10-25 17:23:00,
2013-10-25 13:29:00,46.7,31.4,30.48,WNW,285,2.0,3.0,55,0.00,,,0.00,Wunderground v.1.15,2013-10-25 17:29:00,
2013-10-25 13:35:00,46.9,33.3,30.47,WNW,285,2.0,5.0,59,0.00,,,0.00,Wunderground v.1.15,2013-10-25 17:35:00,
2013-10-25 13:41:00,47.3,32.8,30.47,West,266,3.0,3.0,57,0.00,,,0.00,Wunderground v.1.15,2013-10-25 17:41:00,
2013-10-25 13:47:00,47.4,31.1,30.47,SW,220,2.0,4.0,53,0.00,,,0.00,Wunderground v.1.15,2013-10-25 17:47:00,
2013-10-25 13:53:00,47.7,33.2,30.47,West,278,2.0,6.0,57,0.00,,,0.00,Wunderground v.1.15,2013-10-25 17:53:00,
2013-10-25 13:59:00,47.6,32.2,30.46,WNW,293,3.0,6.0,55,0.00,,,0.00,Wunderground v.1.15,2013-10-25 17:59:00,
2013-10-25 14:05:00,47.1,30.4,30.46,NW,304,3.0,4.0,52,0.00,,,0.00,Wunderground v.1.15,2013-10-25 18:05:00,
2013-10-25 14:11:00,47.2,32.7,30.45,West,267,3.0,4.0,57,0.00,,,0.00,Wunderground v.1.15,2013-10-25 18:11:00,
2013-10-25 14:17:00,47.2,30.9,30.45,SSW,194,3.0,4.0,53,0.00,,,0.00,Wunderground v.1.15,2013-10-25 18:17:00,
2013-10-25 14:23:00,47.4,31.6,30.45,SW,225,3.0,3.0,54,0.00,,,0.00,Wunderground v.1.15,2013-10-25 18:23:00,
2013-10-25 14:29:00,47.4,31.1,30.44,WSW,244,2.0,3.0,53,0.00,,,0.00,Wunderground v.1.15,2013-10-25 18:29:00,
2013-10-25 14:35:00,47.6,29.9,30.44,NW,309,2.0,5.0,50,0.00,,,0.00,Wunderground v.1.15,2013-10-25 18:35:00,
2013-10-25 14:41:00,46.8,30.1,30.44,NW,309,3.0,3.0,52,0.00,,,0.00,Wunderground v.1.15,2013-10-25 18:41:00,
2013-10-25 14:47:00,46.8,31.9,30.44,WNW,300,2.0,4.0,56,0.00,,,0.00,Wunderground v.1.15,2013-10-25 18:47:00,
2013-10-25 14:53:00,47.4,32.0,30.43,SSW,192,2.0,6.0,55,0.00,,,0.00,Wunderground v.1.15,2013-10-25 18:53:00,
2013-10-25 14:59:00,47.9,31.6,30.43,WNW,291,3.0,6.0,53,0.00,,,0.00,Wunderground v.1.15,2013-10-25 18:59:00,
2013-10-25 15:05:00,48.0,29.2,30.42,WNW,303,2.0,6.0,48,0.00,,,0.00,Wunderground v.1.15,2013-10-25 19:05:00,
2013-10-25 15:11:00,48.3,31.5,30.42,WNW,290,2.0,3.0,52,0.00,,,0.00,Wunderground v.1.15,2013-10-25 19:11:00,
2013-10-25 15:17:00,48.1,29.8,30.42,WNW,296,3.0,3.0,49,0.00,,,0.00,Wunderground v.1.15,2013-10-25 19:17:00,
2013-10-25 15:23:00,48.3,31.5,30.41,West,273,2.0,4.0,52,0.00,,,0.00,Wunderground v.1.15,2013-10-25 19:23:00,
2013-10-25 15:29:00,48.5,30.7,30.41,NNW,336,2.0,4.0,50,0.00,,,0.00,Wunderground v.1.15,2013-10-25 19:29:00,
2013-10-25 15:35:00,48.5,30.2,30.41,NNW,330,2.0,3.0,49,0.00,,,0.00,Wunderground v.1.15,2013-10-25 19:35:00,
2013-10-25 15:41:00,48.5,29.7,30.41,NNW,344,2.0,2.0,48,0.00,,,0.00,Wunderground v.1.15,2013-10-25 19:41:00,
2013-10-25 15:47:00,49.0,30.7,30.41,NW,320,1.0,4.0,49,0.00,,,0.00,Wunderground v.1.15,2013-10-25 19:47:00,
2013-10-25 15:53:00,49.3,31.9,30.41,NW,320,1.0,3.0,51,0.00,,,0.00,Wunderground v.1.15,2013-10-25 19:53:00,
2013-10-25 15:59:00,49.7,32.3,30.40,WNW,286,1.0,8.0,51,0.00,,,0.00,Wunderground v.1.15,2013-10-25 19:59:00,
2013-10-25 16:05:00,49.2,30.3,30.40,West,273,3.0,4.0,48,0.00,,,0.00,Wunderground v.1.15,2013-10-25 20:05:00,
2013-10-25 16:11:00,49.1,31.7,30.40,SSW,209,2.0,2.0,51,0.00,,,0.00,Wunderground v.1.15,2013-10-25 20:11:00,
2013-10-25 16:17:00,49.2,30.8,30.39,SW,221,3.0,7.0,49,0.00,,,0.00,Wunderground v.1.15,2013-10-25 20:17:00,
2013-10-25 16:23:00,49.4,30.5,30.39,SW,230,2.0,6.0,48,0.00,,,0.00,Wunderground v.1.15,2013-10-25 20:23:00,
2013-10-25 16:29:00,49.5,30.6,30.39,West,265,2.0,6.0,48,0.00,,,0.00,Wunderground v.1.15,2013-10-25 20:29:00,
2013-10-25 16:35:00,49.6,30.2,30.39,NW,308,2.0,4.0,47,0.00,,,0.00,Wunderground v.1.15,2013-10-25 20:35:00,
2013-10-25 16:41:00,49.6,29.6,30.39,WNW,286,2.0,4.0,46,0.00,,,0.00,Wunderground v.1.15,2013-10-25 20:41:00,
2013-10-25 16:47:00,49.7,29.2,30.39,WNW,285,2.0,4.0,45,0.00,,,0.00,Wunderground v.1.15,2013-10-25 20:47:00,
2013-10-25 16:53:00,49.5,30.6,30.39,WNW,282,2.0,2.0,48,0.00,,,0.00,Wunderground v.1.15,2013-10-25 20:53:00,
2013-10-25 16:59:00,49.5,31.1,30.39,West,275,2.0,7.0,49,0.00,,,0.00,Wunderground v.1.15,2013-10-25 20:59:00,
2013-10-25 17:05:00,49.4,29.5,30.39,West,274,2.0,3.0,46,0.00,,,0.00,Wunderground v.1.15,2013-10-25 21:05:00,
2013-10-25 17:11:00,49.0,28.6,30.38,WSW,242,2.0,2.0,45,0.00,,,0.00,Wunderground v.1.15,2013-10-25 21:11:00,
2013-10-25 17:17:00,49.0,29.1,30.38,SW,234,1.0,2.0,46,0.00,,,0.00,Wunderground v.1.15,2013-10-25 21:17:00,
2013-10-25 17:23:00,49.0,29.6,30.38,WSW,242,1.0,1.0,47,0.00,,,0.00,Wunderground v.1.15,2013-10-25 21:23:00,
2013-10-25 17:29:00,49.3,29.9,30.38,WSW,240,1.0,2.0,47,0.00,,,0.00,Wunderground v.1.15,2013-10-25 21:29:00,
2013-10-25 17:35:00,49.4,29.5,30.38,WSW,244,1.0,2.0,46,0.00,,,0.00,Wunderground v.1.15,2013-10-25 21:35:00,
2013-10-25 17:41:00,49.2,28.2,30.38,WSW,253,1.0,1.0,44,0.00,,,0.00,Wunderground v.1.15,2013-10-25 21:41:00,
2013-10-25 17:47:00,49.3,28.8,30.37,SSW,212,1.0,2.0,45,0.00,,,0.00,Wunderground v.1.15,2013-10-25 21:47:00,
2013-10-25 17:53:00,48.9,28.5,30.37,SW,231,2.0,2.0,45,0.00,,,0.00,Wunderground v.1.15,2013-10-25 21:53:00,
2013-10-25 17:59:00,48.8,28.4,30.37,SW,231,1.0,2.0,45,0.00,,,0.00,Wunderground v.1.15,2013-10-25 21:59:00,
2013-10-25 18:05:00,48.7,29.4,30.37,WSW,243,1.0,3.0,47,0.00,,,0.00,Wunderground v.1.15,2013-10-25 22:05:00,
2013-10-25 18:11:00,48.3,29.0,30.37,WSW,240,1.0,2.0,47,0.00,,,0.00,Wunderground v.1.15,2013-10-25 22:11:00,
2013-10-25 18:17:00,47.8,28.5,30.36,WSW,240,1.0,2.0,47,0.00,,,0.00,Wunderground v.1.15,2013-10-25 22:17:00,
2013-10-25 18:23:00,47.4,28.7,30.36,WSW,240,0.0,1.0,48,0.00,,,0.00,Wunderground v.1.15,2013-10-25 22:23:00,
2013-10-25 18:29:00,47.1,28.9,30.36,WSW,240,0.0,1.0,49,0.00,,,0.00,Wunderground v.1.15,2013-10-25 22:29:00,
2013-10-25 18:35:00,46.7,29.5,30.36,WSW,240,0.0,0.0,51,0.00,,,0.00,Wunderground v.1.15,2013-10-25 22:35:00,
2013-10-25 18:41:00,46.1,30.4,30.36,WSW,240,0.0,0.0,54,0.00,,,0.00,Wunderground v.1.15,2013-10-25 22:41:00,
2013-10-25 18:47:00,45.4,30.2,30.36,WSW,240,0.0,0.0,55,0.00,,,0.00,Wunderground v.1.15,2013-10-25 22:47:00,
2013-10-25 18:53:00,44.7,30.0,30.35,WSW,240,0.0,0.0,56,0.00,,,0.00,Wunderground v.1.15,2013-10-25 22:53:00,
2013-10-25 18:59:00,44.1,28.9,30.36,WSW,240,0.0,0.0,55,0.00,,,0.00,Wunderground v.1.15,2013-10-25 22:59:00,
2013-10-25 19:05:00,43.6,28.5,30.35,WSW,240,0.0,0.0,55,0.00,,,0.00,Wunderground v.1.15,2013-10-25 23:05:00,
2013-10-25 19:11:00,43.1,28.9,30.35,WSW,240,0.0,0.0,57,0.00,,,0.00,Wunderground v.1.15,2013-10-25 23:11:00,
2013-10-25 19:17:00,42.4,29.5,30.35,WSW,240,0.0,0.0,60,0.00,,,0.00,Wunderground v.1.15,2013-10-25 23:17:00,
2013-10-25 19:23:00,41.8,28.9,30.35,WSW,240,0.0,0.0,60,0.00,,,0.00,Wunderground v.1.15,2013-10-25 23:23:00,
2013-10-25 19:29:00,41.2,28.8,30.35,WSW,240,0.0,0.0,61,0.00,,,0.00,Wunderground v.1.15,2013-10-25 23:29:00,
2013-10-25 19:35:00,40.6,29.4,30.35,WSW,240,0.0,0.0,64,0.00,,,0.00,Wunderground v.1.15,2013-10-25 23:35:00,
2013-10-25 19:41:00,40.1,29.3,30.35,WSW,240,0.0,0.0,65,0.00,,,0.00,Wunderground v.1.15,2013-10-25 23:41:00,
2013-10-25 19:47:00,39.7,29.3,30.35,WSW,240,0.0,0.0,66,0.00,,,0.00,Wunderground v.1.15,2013-10-25 23:47:00,
2013-10-25 19:53:00,39.3,29.3,30.35,WSW,240,0.0,0.0,67,0.00,,,0.00,Wunderground v.1.15,2013-10-25 23:53:00,
2013-10-25 19:59:00,38.8,29.5,30.35,WSW,240,0.0,0.0,69,0.00,,,0.00,Wunderground v.1.15,2013-10-25 23:59:00,
2013-10-25 20:05:00,38.4,29.8,30.35,WSW,240,0.0,0.0,71,0.00,,,0.00,Wunderground v.1.15,2013-10-26 00:05:00,
2013-10-25 20:11:00,38.0,29.4,30.35,WSW,240,0.0,0.0,71,0.00,,,0.00,Wunderground v.1.15,2013-10-26 00:11:00,
2013-10-25 20:17:00,37.5,29.3,30.35,WSW,240,0.0,0.0,72,0.00,,,0.00,Wunderground v.1.15,2013-10-26 00:17:00,
2013-10-25 20:23:00,37.1,29.2,30.35,WSW,240,0.0,0.0,73,0.00,,,0.00,Wunderground v.1.15,2013-10-26 00:23:00,
2013-10-25 20:29:00,36.7,29.5,30.35,WSW,240,0.0,0.0,75,0.00,,,0.00,Wunderground v.1.15,2013-10-26 00:29:00,
2013-10-25 20:35:00,36.4,29.6,30.35,WSW,240,0.0,0.0,76,0.00,,,0.00,Wunderground v.1.15,2013-10-26 00:35:00,
2013-10-25 20:41:00,36.0,29.5,30.34,WSW,240,0.0,0.0,77,0.00,,,0.00,Wunderground v.1.15,2013-10-26 00:41:00,
2013-10-25 20:47:00,35.8,29.3,30.34,WSW,240,0.0,0.0,77,0.00,,,0.00,Wunderground v.1.15,2013-10-26 00:47:00,
2013-10-25 20:53:00,35.5,29.3,30.35,WSW,240,0.0,0.0,78,0.00,,,0.00,Wunderground v.1.15,2013-10-26 00:53:00,
2013-10-25 20:59:00,35.2,29.3,30.34,WSW,240,0.0,0.0,79,0.00,,,0.00,Wunderground v.1.15,2013-10-26 00:59:00,
2013-10-25 21:05:00,35.0,29.5,30.34,WSW,240,0.0,0.0,80,0.00,,,0.00,Wunderground v.1.15,2013-10-26 01:05:00,
2013-10-25 21:11:00,34.8,29.6,30.34,WSW,240,0.0,0.0,81,0.00,,,0.00,Wunderground v.1.15,2013-10-26 01:11:00,
2013-10-25 21:17:00,34.6,29.4,30.34,WSW,240,0.0,0.0,81,0.00,,,0.00,Wunderground v.1.15,2013-10-26 01:17:00,
2013-10-25 21:23:00,34.4,29.5,30.34,WSW,240,0.0,0.0,82,0.00,,,0.00,Wunderground v.1.15,2013-10-26 01:23:00,
2013-10-25 21:29:00,34.1,29.5,30.34,WSW,240,0.0,0.0,83,0.00,,,0.00,Wunderground v.1.15,2013-10-26 01:29:00,
2013-10-25 21:35:00,33.8,29.5,30.34,WSW,240,0.0,0.0,84,0.00,,,0.00,Wunderground v.1.15,2013-10-26 01:35:00,
2013-10-25 21:41:00,33.7,29.7,30.34,WSW,240,0.0,0.0,85,0.00,,,0.00,Wunderground v.1.15,2013-10-26 01:41:00,
2013-10-25 21:47:00,33.5,29.5,30.33,WSW,240,0.0,0.0,85,0.00,,,0.00,Wunderground v.1.15,2013-10-26 01:47:00,
2013-10-25 21:53:00,33.4,29.4,30.33,WSW,240,0.0,0.0,85,0.00,,,0.00,Wunderground v.1.15,2013-10-26 01:53:00,
2013-10-25 21:59:00,33.1,29.1,30.33,WSW,240,0.0,0.0,85,0.00,,,0.00,Wunderground v.1.15,2013-10-26 01:59:00,
2013-10-25 22:05:00,32.8,29.1,30.33,WSW,240,0.0,0.0,86,0.00,,,0.00,Wunderground v.1.15,2013-10-26 02:05:00,
2013-10-25 22:11:00,32.6,29.2,30.33,WSW,240,0.0,0.0,87,0.00,,,0.00,Wunderground v.1.15,2013-10-26 02:11:00,
2013-10-25 22:17:00,32.5,29.1,30.33,WSW,240,0.0,0.0,87,0.00,,,0.00,Wunderground v.1.15,2013-10-26 02:17:00,
2013-10-25 22:23:00,32.4,29.0,30.33,WSW,240,0.0,0.0,87,0.00,,,0.00,Wunderground v.1.15,2013-10-26 02:23:00,
2013-10-25 22:29:00,32.2,28.8,30.33,WSW,240,0.0,0.0,87,0.00,,,0.00,Wunderground v.1.15,2013-10-26 02:29:00,
2013-10-25 22:35:00,32.1,28.9,30.33,WSW,240,0.0,0.0,88,0.00,,,0.00,Wunderground v.1.15,2013-10-26 02:35:00,
2013-10-25 22:41:00,32.0,29.1,30.33,WSW,240,0.0,0.0,89,0.00,,,0.00,Wunderground v.1.15,2013-10-26 02:41:00,
2013-10-25 22:47:00,31.9,29.0,30.33,WSW,240,0.0,0.0,89,0.00,,,0.00,Wunderground v.1.15,2013-10-26 02:47:00,
2013-10-25 22:53:00,31.7,28.8,30.33,WSW,240,0.0,0.0,89,0.00,,,0.00,Wunderground v.1.15,2013-10-26 02:53:00,
2013-10-25 22:59:00,31.5,28.6,30.33,WSW,240,0.0,0.0,89,0.00,,,0.00,Wunderground v.1.15,2013-10-26 02:59:00,
2013-10-25 23:05:00,31.3,28.7,30.33,WSW,240,0.0,0.0,90,0.00,,,0.00,Wunderground v.1.15,2013-10-26 03:05:00,
2013-10-25 23:11:00,31.2,28.6,30.32,WSW,240,0.0,0.0,90,0.00,,,0.00,Wunderground v.1.15,2013-10-26 03:11:00,
2013-10-25 23:17:00,31.1,28.5,30.32,WSW,240,0.0,0.0,90,0.00,,,0.00,Wunderground v.1.15,2013-10-26 03:17:00,
2013-10-25 23:23:00,31.0,28.4,30.32,WSW,240,0.0,0.0,90,0.00,,,0.00,Wunderground v.1.15,2013-10-26 03:23:00,
2013-10-25 23:29:00,30.9,28.6,30.31,WSW,240,0.0,0.0,91,0.00,,,0.00,Wunderground v.1.15,2013-10-26 03:29:00,
2013-10-25 23:35:00,30.8,28.5,30.31,WSW,240,0.0,0.0,91,0.00,,,0.00,Wunderground v.1.15,2013-10-26 03:35:00,
2013-10-25 23:41:00,30.6,28.3,30.31,WSW,240,0.0,0.0,91,0.00,,,0.00,Wunderground v.1.15,2013-10-26 03:41:00,
2013-10-25 23:47:00,30.7,28.7,30.31,WSW,240,0.0,0.0,92,0.00,,,0.00,Wunderground v.1.15,2013-10-26 03:47:00,
2013-10-25 23:53:00,30.7,28.7,30.31,WSW,240,0.0,0.0,92,0.00,,,0.00,Wunderground v.1.15,2013-10-26 03:53:00,
2013-10-25 23:59:00,30.6,28.6,30.30,WSW,240,0.0,0.0,92,0.00,,,0.00,Wunderground v.1.15,2013-10-26 03:59:00,